User: anonymous   Login
Location: Harwich
(41.7160°N, 69.9939°W)
Time: 10:52:49
(UTC+01:00)
Language:

Transit 2A Rocket - Orbit

View from above orbital plane
View from above orbital plane
View from above satellite
View from above satellite

Ground track
Ground track

The orbit data is extracted from the following two-line orbital elements,

1 00047U 60007C   23030.47474693  .00000447  00000-0  12219-3 0  9999
2 00047  66.6657 115.4752 0231241 321.5631  36.9189 14.42579360272680
Epoch (UTC): 30 January 2023 11:23:38
Eccentricity: 0.0231241
inclination: 66.6657°
perigee height: 585 km
apogee height: 915 km
right ascension of ascending node: 115.4752°
argument of perigee: 321.5631°
revolutions per day: 14.42579360
mean anomaly at epoch: 36.9189°
orbit number at epoch: 27268

The dashed part of the orbit path shows where the satellite is in the earth's shadow,  

DLR